Location: ?????oe
(44.4874°N, 135.7046°E)
Time: 07:18:22
(UTC+00:00)

BREEZE-M DEB (TANK) - Pass Details

Date: 13 December 2025
Orbit: 318 x 16559 km, 49.4° (Epoch: 13 January)

Event Time Altitude Azimuth Distance (km) Brightness Sun altitude
Exits shadow 21:23:05 16° 296° (WNW) 1,230 3.9 -10.8°
Maximum altitude 21:25:12 44° 5° (N) 857 3.7 -10.4°
Drops below altitude 10° 21:32:06 10° 78° (ENE) 3,758 7.9 -9.3°
Sets 21:38:19 0° 84° (E) 6,493 9.4 -8.3°
